1496206800.53,23082,18.69,74124.0,6.17,4.01,4.07,0,*70
1496206801.77,23083,18.69,74116.5,6.17,3.81,4.01,0,*78
1496206803.01,23084,18.69,74114.8,6.19,3.67,4.05,0,*7D
1496206804.21,23085,18.69,74122.5,6.19,3.63,4.05,0,*78
1496206805.42,23086,18.69,74130.8,6.21,3.23,4.23,0,*70
1496206806.62,23087,18.69,74122.5,6.21,2.69,4.23,0,*7E
1496206807.83,23088,18.69,74120.0,6.21,2.51,4.15,0,*7F
1496206809.06,23089,18.69,74110.8,6.21,3.33,4.67,0,*7E
1496206810.29,23090,18.69,74110.3,6.21,3.79,4.67,0,*78
1496206811.52,23091,18.69,74108.0,6.21,3.97,4.59,0,*74
1496206812.73,23092,18.69,74118.0,6.21,4.37,4.75,0,*74
1496206813.97,23093,18.69,74122.3,6.25,4.31,4.79,0,*7B
1496206815.19,23094,18.69,74120.5,6.25,4.27,4.59,0,*79
1496206816.43,23095,18.69,74110.5,6.27,4.53,4.63,0,*70
1496206817.67,23096,18.69,74114.3,6.27,4.53,4.63,0,*73
1496206818.88,23097,18.69,74108.3,6.27,4.53,4.33,0,*77
1496206820.11,23098,18.69,74112.0,6.29,4.31,3.75,0,*77
1496206821.3,23099,18.69,74118.8,6.29,3.93,3.25,0,*7C
1496206822.5,23100,18.69,74124.3,6.29,3.15,2.27,0,*70
1496206823.76,23101,18.69,74120.0,6.31,1.97,1.29,0,*7D
1496206824.96,23102,18.69,74126.0,6.31,1.01,1.41,0,*7F
1496206826.2,23103,18.69,74122.3,6.31,0.67,1.47,0,*49
1496206827.43,23104,18.69,74114.8,6.35,1.05,2.17,0,*79
1496206828.69,23105,18.69,74108.5,6.35,2.01,3.07,0,*7F
1496206829.94,23106,18.69,74110.0,6.31,2.13,2.85,0,*70
1496206831.17,23107,18.69,74108.8,6.35,2.89,3.29,0,*71
1496206832.43,23108,18.69,74104.0,6.35,3.07,3.67,0,*73
1496206833.66,23109,18.69,74102.0,6.35,3.19,3.89,0,*7D
1496206834.9,23110,18.69,74110.0,6.35,3.29,3.79,0,*79
1496206836.12,23111,18.69,74098.5,6.35,3.19,3.29,0,*7E
1496206837.38,23112,18.69,74102.3,6.35,3.23,3.19,0,*77
1496206838.61,23113,18.69,74098.5,6.35,2.99,3.45,0,*7F
1496206839.84,23114,18.69,74110.3,6.35,2.89,3.55,0,*78
1496206841.04,23115,18.69,74108.5,6.37,3.29,3.71,0,*76
1496206842.24,23116,18.69,74106.3,6.37,3.19,3.59,0,*7C
1496206843.47,23117,18.69,74102.0,6.39,3.11,3.63,0,*72
1496206844.7,23118,18.69,74106.3,6.39,3.11,3.59,0,*74
1496206845.93,23119,18.69,74110.0,6.39,2.43,2.91,0,*76
1496206847.16,23120,18.69,74104.5,6.37,1.55,2.85,0,*73
1496206848.39,23121,18.69,74096.3,6.43,1.75,3.53,0,*79
1496206849.59,23122,18.69,74100.5,6.41,2.35,3.67,0,*78
1496206850.81,23123,18.69,74098.3,6.41,2.43,3.19,0,*71
1496206852.02,23124,18.69,74086.8,6.41,2.35,3.15,0,*7B
1496206853.25,23125,18.69,74138.8,6.43,2.31,2.73,0,*7D
1496206854.5,23126,18.69,74110.3,6.43,1.93,2.59,0,*7D
1496206855.76,23127,18.69,74110.3,6.43,1.25,2.43,0,*7A
1496206856.98,23128,18.69,74114.8,6.43,0.05,2.01,0,*70
1496206858.18,23129,18.69,74110.3,6.43,-0.57,1.83,0,*62
1496206859.36,23130,18.69,74136.0,6.45,-0.37,1.75,0,*63
1496206860.56,23131,18.69,74122.5,6.47,-0.37,1.79,0,*6C
1496206861.82,23132,18.69,74134.5,6.47,-1.05,1.63,0,*54
1496206863.05,23133,18.69,74130.8,6.47,-0.65,1.17,0,*61
1496206864.27,23134,18.69,74134.0,6.51,-0.07,0.55,0,*62
1496206865.5,23135,18.69,74128.8,6.51,-1.67,-0.93,0,*43
1496206866.72,23136,18.69,74134.3,6.51,-3.07,-1.59,0,*73
1496206867.94,23137,18.69,74138.3,6.51,-4.21,-1.79,0,*73
1496206869.18,23138,18.69,74138.8,6.51,-4.73,-1.59,0,*79
1496206870.4,23139,18.69,74130.5,6.53,-4.77,-0.61,0,*44
1496206871.62,23140,18.69,74100.5,6.53,-2.55,1.41,0,*52
1496206872.88,23141,18.69,74096.3,6.53,-0.85,2.43,0,*6D
1496206874.12,23142,18.69,74092.5,6.51,0.67,3.07,0,*4C
1496206875.37,23143,18.69,74078.5,6.53,0.91,2.85,0,*4D
1496206876.62,23144,18.69,74114.0,6.53,2.09,3.49,0,*78
1496206877.85,23145,18.69,74110.8,6.53,3.07,3.85,0,*76
1496206879.1,23146,18.69,74110.3,6.53,3.53,3.79,0,*77
1496206880.33,23147,18.69,74128.3,6.57,3.33,3.55,0,*7A
1496206881.58,23148,18.69,74136.0,6.57,3.19,3.15,0,*79
1496206882.84,23149,18.69,74132.3,6.57,2.51,2.25,0,*77
1496206884.1,23150,18.69,74146.3,6.57,1.17,1.29,0,*71
1496206885.31,23151,18.69,74132.8,6.53,-0.37,-0.11,0,*7D
1496206886.54,23152,18.69,74134.5,6.53,-2.59,-0.73,0,*40
1496206887.77,23153,18.69,74132.8,6.53,-2.23,0.13,0,*67
1496206889.0,23154,18.69,74134.8,6.51,-3.07,0.41,0,*62
1496206890.26,23155,18.69,74142.0,6.51,-3.47,1.13,0,*51
1496206891.49,23156,18.69,74134.5,6.53,-2.99,1.37,0,*54
1496206892.74,23157,18.69,74126.0,6.53,-2.71,1.71,0,*51
1496206893.97,23158,18.69,74120.5,6.51,-0.61,3.03,0,*68
1496206895.2,23159,18.69,74120.3,6.53,1.93,4.23,0,*7F
1496206896.42,23160,18.69,74122.8,6.57,2.69,4.27,0,*73
1496206897.65,23161,18.69,74138.5,6.61,2.85,4.15,0,*74
1496206898.86,23162,18.69,74124.0,6.61,3.25,4.41,0,*7D
1496206900.06,23163,18.69,74116.3,6.63,3.37,4.19,0,*70
1496206901.31,23164,18.69,74122.0,6.65,3.41,3.49,0,*72
1496206902.52,23165,18.69,74118.3,6.65,3.29,2.91,0,*79
1496206903.71,23166,18.69,74128.5,6.67,2.99,1.89,0,*78
1496206904.94,23167,18.69,74136.8,6.69,2.55,1.05,0,*73
1496206906.19,23168,18.69,74118.8,6.69,0.87,-0.89,0,*59
1496206907.41,23169,18.69,74138.8,6.69,-0.27,-1.25,0,*48
1496206908.63,23170,18.69,74126.3,6.71,-1.67,-1.87,0,*74
1496206909.87,23171,18.69,74134.0,6.69,-2.51,-1.17,0,*73
1496206911.08,23172,18.69,74138.3,6.71,-2.35,-1.05,0,*78
1496206912.29,23173,18.69,74132.0,6.71,-2.67,-1.17,0,*7D
1496206913.54,23174,18.69,74146.0,6.71,-3.59,-1.99,0,*70
1496206914.75,23175,18.69,74144.5,6.73,-4.61,-1.75,0,*7D
1496206915.96,23176,18.69,74144.8,6.71,-5.19,-0.65,0,*42
1496206917.18,23177,18.69,74152.8,6.73,-1.59,1.59,0,*52
1496206918.37,23178,18.69,74146.8,6.71,0.37,1.41,0,*42
1496206919.58,23179,18.69,74144.0,6.71,0.21,0.87,0,*7F
1496206920.75,23180,18.69,74146.3,6.71,-1.51,0.01,0,*5C
1496206921.93,23181,18.69,74148.8,6.71,-3.27,0.01,0,*5E
1496206923.11,23182,18.69,74158.5,6.71,-2.27,1.41,0,*59
1496206924.31,23183,18.69,74156.8,6.67,-0.73,1.71,0,*6F
1496206925.52,23184,18.69,74152.5,6.67,-0.15,1.97,0,*60
1496206926.73,23185,18.69,74140.8,6.67,1.01,2.73,0,*71
1496206927.97,23186,18.69,74124.8,6.65,2.21,3.07,0,*73
1496206929.23,23187,18.69,74122.8,6.65,2.89,2.89,0,*77
1496206930.44,23188,18.69,74108.8,6.67,2.27,2.09,0,*76
1496206931.66,23189,18.69,74106.8,6.67,1.63,1.89,0,*7F
1496206932.86,23190,18.69,74092.5,6.67,0.63,1.79,0,*49
1496206934.1,23191,18.69,74086.0,6.67,1.17,2.51,0,*73
1496206935.35,23192,18.69,74102.8,6.65,2.59,3.53,0,*78
1496206936.58,23193,18.69,74108.3,6.65,2.91,3.37,0,*7F
1496206937.76,23194,18.69,74116.5,6.63,2.65,2.95,0,*7C
1496206938.94,23195,18.69,74110.3,6.63,3.29,3.29,0,*72
1496206940.17,23196,18.69,74100.3,6.65,3.79,3.63,0,*7C
1496206941.38,23197,18.69,74100.8,6.63,3.63,3.15,0,*71
1496206942.61,23198,18.69,74106.5,6.63,3.75,3.19,0,*75
1496206943.84,23199,18.69,74106.3,6.65,3.25,3.15,0,*7B
1496206945.1,23200,18.69,74112.0,6.65,3.03,2.81,0,*70
1496206946.33,23201,18.69,74128.0,6.65,2.89,2.65,0,*78
1496206947.59,23202,18.69,74132.8,6.65,3.07,2.89,0,*7E
1496206948.84,23203,18.69,74144.0,6.65,3.19,3.15,0,*74
1496206950.09,23204,18.69,74138.8,6.65,3.19,3.07,0,*70
1496206951.29,23205,18.69,74132.8,6.67,3.63,3.19,0,*71
1496206952.52,23206,18.69,74136.8,6.67,3.53,2.81,0,*71
1496206953.72,23207,18.69,74130.0,6.69,3.55,2.61,0,*76
1496206954.96,23208,18.69,74132.3,6.67,3.23,2.25,0,*76
1496206956.18,23209,18.69,74136.8,6.67,2.85,1.67,0,*7F
1496206957.38,23210,18.69,74126.8,6.67,2.09,1.41,0,*77
1496206958.62,23211,18.69,74100.3,6.69,2.55,1.43,0,*73
1496206959.83,23212,18.69,74102.5,6.67,2.25,1.01,0,*7F
1496206961.08,23213,18.69,74108.8,6.69,2.39,1.67,0,*7D
1496206962.33,23214,18.69,74108.8,6.69,2.51,1.93,0,*7F
1496206963.57,23215,18.69,74120.5,6.69,2.85,2.25,0,*79
1496206964.83,23216,18.69,74130.5,6.69,2.85,2.17,0,*7B
1496206966.05,23217,18.69,74116.8,6.69,2.65,1.43,0,*76
1496206967.27,23218,18.69,74118.8,6.67,2.09,-0.41,0,*63
1496206968.48,23219,18.69,74128.0,6.69,0.75,-2.91,0,*6A
1496206969.73,23220,18.69,74138.8,6.67,-1.83,-4.81,0,*7C
1496206970.99,23221,18.69,74140.8,6.69,-3.55,-3.43,0,*73
1496206972.18,23222,18.69,74144.5,6.71,-3.15,-1.79,0,*76
1496206973.4,23223,18.69,74144.5,6.69,-2.79,-0.41,0,*4F
1496206974.61,23224,18.69,74146.3,6.71,-1.29,1.55,0,*5E
1496206975.81,23225,18.69,74146.0,6.71,0.97,2.25,0,*42
1496206977.04,23226,18.69,74150.0,6.73,1.75,0.55,0,*4B
1496206978.23,23227,18.69,74160.8,6.75,-0.69,-2.31,0,*40
1496206979.42,23228,18.69,74154.3,6.75,-3.87,-6.05,0,*7F
1496206980.63,23229,18.69,74142.5,6.73,-6.31,-6.55,0,*75
1496206981.85,23230,18.69,74120.0,6.71,-7.57,-4.05,0,*79
1496206983.04,23231,18.69,74112.0,6.71,-4.21,-0.65,0,*48
1496206984.29,23232,18.69,74124.5,6.73,-1.87,0.41,0,*6B
1496206985.52,23233,18.69,74112.5,6.73,-0.57,0.51,0,*57
1496206986.74,23234,18.69,74114.0,6.73,-0.33,0.17,0,*50
1496206987.97,23235,18.69,74118.0,6.75,-0.89,-0.23,0,*7C
1496206989.18,23236,18.69,74126.0,6.75,-1.33,-0.23,0,*4F
1496206990.39,23237,18.69,74132.0,6.75,-1.35,-0.07,0,*7E
1496206991.59,23238,18.69,74134.5,6.79,-0.93,-0.57,0,*75
1496206992.76,23239,18.69,74130.8,6.79,-0.29,-0.69,0,*78
1496206993.97,23240,18.69,74142.5,6.81,-1.17,-2.35,0,*76
1496206995.21,23241,18.69,74136.8,6.81,-1.99,-1.17,0,*72
1496206996.42,23242,18.69,74132.0,6.83,-1.17,0.37,0,*6B
1496206997.58,23243,18.69,74132.0,6.83,0.09,0.97,0,*43
1496206998.82,23244,18.69,74112.5,6.81,0.21,0.33,0,*72
1496207000.02,23245,18.69,74096.5,6.83,0.97,0.47,0,*7F
1496207001.23,23246,18.69,74106.3,6.83,0.87,-0.15,0,*57
1496207002.42,23247,18.69,74122.5,6.83,0.33,-0.77,0,*5D
1496207003.58,23248,18.69,74126.5,6.85,0.01,-0.69,0,*6A
1496207004.79,23249,18.69,74126.5,6.87,-0.37,-0.03,0,*4D
1496207005.99,23250,18.69,74140.3,6.85,-0.77,0.47,0,*5E
1496207007.19,23251,18.69,74144.0,6.85,-0.15,2.09,0,*63
1496207008.45,23252,18.69,74144.5,6.87,1.09,3.71,0,*7D
1496207009.65,23253,18.69,74146.3,6.89,2.13,4.49,0,*76
1496207010.89,23254,18.69,74144.5,6.91,3.25,4.97,0,*7F
1496207012.07,23255,18.69,74150.3,6.93,4.15,5.49,0,*7A
1496207013.27,23256,18.69,74144.0,6.95,4.53,5.63,0,*75
1496207014.47,23257,18.69,74144.0,6.95,4.81,5.63,0,*7B
1496207015.7,23258,18.69,74144.8,6.99,5.15,5.55,0,*71
1496207016.92,23259,18.69,74140.5,7.03,5.29,5.55,0,*7D
1496207018.18,23260,18.69,74142.3,7.03,5.01,5.01,0,*7C
1496207019.39,23261,18.69,74140.0,7.05,4.71,4.85,0,*70
1496207020.63,23262,18.69,74134.5,7.03,4.97,5.07,0,*76
1496207021.87,23263,18.69,74134.0,7.07,5.01,5.11,0,*7A
1496207023.13,23264,18.69,74128.0,7.07,4.93,5.01,0,*76
1496207024.33,23265,18.69,74120.0,7.03,4.49,4.37,0,*70
1496207025.53,23266,18.69,74126.3,7.05,4.75,4.19,0,*76
1496207026.71,23267,18.69,74128.3,7.05,4.37,2.95,0,*73
1496207027.97,23268,18.69,74132.5,7.07,3.23,0.59,0,*4E
1496207029.2,23269,18.69,74132.8,7.07,0.83,-1.71,0,*60
1496207030.41,23270,18.69,74132.3,7.09,-2.07,-2.87,0,*7F
1496207031.6,23271,18.69,74128.5,7.09,-3.15,-2.91,0,*7B
1496207032.85,23272,18.69,74128.0,7.07,-2.99,-2.51,0,*7F
1496207034.06,23273,18.69,74128.3,7.09,-1.63,-1.39,0,*7B
1496207035.3,23274,18.69,74130.5,7.07,-1.99,-2.23,0,*7F
1496207036.5,23275,18.69,74128.8,7.05,-3.19,-2.31,0,*75
1496207037.74,23276,18.69,74138.8,7.05,-3.51,-1.99,0,*7B
1496207039.01,23277,18.69,74140.8,7.03,-5.07,-2.67,0,*7B
1496207040.23,23278,18.69,74144.5,7.03,-7.23,-1.51,0,*76
1496207041.47,23279,18.69,74122.0,7.03,-3.83,1.89,0,*51
1496207042.66,23280,18.69,74124.8,7.05,0.79,4.27,0,*4B
1496207043.84,23281,18.69,74118.8,7.05,3.29,4.85,0,*74
1496207045.07,23282,18.69,74114.0,7.07,3.63,4.75,0,*74
1496207046.3,23283,18.69,74106.0,7.07,3.23,3.85,0,*79
1496207047.51,23284,18.69,74114.8,7.09,3.37,3.93,0,*72
1496207048.7,23285,18.69,74122.5,7.09,3.37,3.59,0,*75
1496207049.92,23286,18.69,74130.0,7.09,3.53,3.53,0,*7E
1496207051.15,23287,18.69,74122.3,7.09,2.51,1.93,0,*72
1496207052.4,23288,18.69,74116.5,7.07,1.97,1.55,0,*70
1496207053.63,23289,18.69,74112.5,7.07,2.91,2.39,0,*7D
1496207054.85,23290,18.69,74118.8,7.05,2.77,1.55,0,*76
1496207056.06,23291,18.69,74116.8,7.05,0.55,-1.51,0,*6C
1496207057.31,23292,18.69,74114.5,7.05,-1.39,-2.63,0,*7B
1496207058.49,23293,18.69,74110.0,7.05,-2.87,-2.91,0,*71
1496207059.73,23294,18.69,74114.0,7.03,-3.67,-3.95,0,*7A
1496207060.97,23295,18.69,74118.8,6.99,-3.95,-3.67,0,*79
1496207062.21,23296,18.69,74118.0,6.99,-3.59,-4.25,0,*7B
1496207063.43,23297,18.69,74114.0,6.97,-5.69,-4.61,0,*71
1496207064.64,23298,18.69,74122.5,6.97,-5.03,-2.99,0,*73
1496207065.83,23299,18.69,74120.8,6.97,-4.29,-3.03,0,*79
1496207067.07,23300,18.69,74120.0,6.93,-3.67,-1.91,0,*78
1496207068.25,23301,18.69,74120.0,6.93,-2.27,-0.41,0,*40
1496207069.47,23302,18.69,74114.0,6.93,-1.43,-0.19,0,*4F
1496207070.64,23303,18.69,74120.0,6.89,-0.29,0.43,0,*5A
1496207071.85,23304,18.69,74116.5,6.91,0.43,0.67,0,*73
1496207073.05,23305,18.69,74124.0,6.89,0.21,-0.45,0,*52
1496207074.26,23306,18.69,74132.3,6.91,-0.65,-1.79,0,*4B
1496207075.51,23307,18.69,74124.0,6.91,-3.63,-3.75,0,*71
1496207076.75,23308,18.69,74122.8,6.91,-4.99,-4.81,0,*70
1496207077.97,23309,18.69,74124.3,6.89,-5.69,-4.57,0,*7D
1496207079.2,23310,18.69,74126.5,6.91,-6.09,-4.29,0,*70
1496207080.45,23311,18.69,74134.0,6.91,-7.23,-5.19,0,*7A
1496207081.68,23312,18.69,74132.8,6.89,-9.01,-5.27,0,*73
1496207082.89,23313,18.69,74132.8,6.89,-9.53,-3.91,0,*7E
1496207084.11,23314,18.69,74132.0,6.91,-6.09,-1.63,0,*7F
1496207085.34,23315,18.69,74126.8,6.91,-3.87,-1.79,0,*76
1496207086.55,23316,18.69,74124.8,6.95,-6.85,-4.05,0,*78
1496207087.8,23317,18.69,74130.3,6.93,-10.71,-4.81,0,*4F
1496207089.0,23318,18.69,74114.0,6.93,-9.75,-3.55,0,*72
1496207090.22,23319,18.69,74118.3,6.93,-10.75,-4.41,0,*49
1496207091.4,23320,18.69,74090.5,6.93,-9.31,-3.87,0,*76
1496207092.61,23321,18.69,74110.8,6.93,-9.23,-3.67,0,*7A
1496207093.79,23322,18.69,74114.3,6.93,-9.93,-3.31,0,*71
1496207095.0,23323,18.69,74108.3,6.93,-9.45,-2.99,0,*78
1496207096.27,23324,18.69,74122.0,6.95,-9.45,-2.51,0,*7D
1496207097.49,23325,18.69,74124.8,6.95,-7.83,-1.63,0,*7A
1496207098.72,23326,18.69,74126.8,6.99,-7.27,-1.55,0,*7E
1496207099.96,23327,18.69,74126.3,6.99,-6.01,-1.09,0,*73
1496207101.18,23328,18.69,74124.8,7.03,-3.91,-0.03,0,*79
1496207102.44,23329,18.69,74112.8,7.03,-1.01,1.33,0,*5C
1496207103.64,23330,18.69,74100.3,7.05,0.79,1.75,0,*43
1496207104.88,23331,18.69,74108.8,7.03,0.55,1.55,0,*48
1496207106.1,23332,18.69,74108.5,6.97,0.25,1.21,0,*43
1496207107.31,23333,18.69,74102.5,6.97,0.37,1.09,0,*4B
1496207108.49,23334,18.69,74080.8,6.97,0.01,0.71,0,*47
1496207109.69,23335,18.69,74058.8,6.97,-0.11,0.75,0,*5E
1496207110.95,23336,18.69,74064.8,6.95,1.13,1.93,0,*78
1496207112.17,23337,18.69,74076.8,6.95,0.97,1.71,0,*48
1496207113.39,23338,18.69,74068.5,6.93,1.67,2.25,0,*7D
1496207114.59,23339,18.69,74080.0,6.93,2.27,2.73,0,*78
1496207115.8,23340,18.69,74124.0,6.93,2.17,2.65,0,*72
1496207116.98,23341,18.69,74110.5,6.93,2.35,2.65,0,*73
1496207118.21,23342,18.75,74098.5,6.93,2.39,2.39,0,*75
1496207119.44,23343,18.69,74092.0,6.93,2.01,1.63,0,*73
1496207120.69,23344,18.69,74100.3,6.91,1.43,0.59,0,*4B
1496207121.89,23345,18.69,74118.0,6.93,0.47,-0.19,0,*54
1496207123.11,23346,18.69,74110.8,6.93,-0.27,-0.89,0,*75
1496207124.35,23347,18.69,74116.5,6.93,-1.05,-1.43,0,*72
1496207125.59,23348,18.69,74118.5,6.93,-1.43,-1.91,0,*70
1496207126.81,23349,18.69,74124.8,6.93,-1.91,-2.23,0,*74
1496207128.03,23350,18.69,74114.5,6.95,-3.35,-2.99,0,*77
1496207129.24,23351,18.69,74114.5,6.95,-4.17,-3.03,0,*73
1496207130.45,23352,18.69,74110.5,6.95,-4.05,-2.39,0,*7B
1496207131.66,23353,18.69,74108.5,6.95,-4.29,-2.27,0,*7B
1496207132.93,23354,18.69,74106.8,6.95,-3.47,-2.55,0,*76
1496207134.16,23355,18.69,74106.8,6.95,-3.71,-2.39,0,*78
1496207135.39,23356,18.69,74106.0,6.97,-3.75,-2.63,0,*72
1496207136.59,23357,18.69,74104.3,6.99,-4.99,-3.19,0,*74
1496207137.78,23358,18.69,74112.5,6.97,-6.35,-3.11,0,*79
1496207139.03,23359,18.69,74114.3,6.99,-5.93,-2.23,0,*79
1496207140.24,23360,18.69,74102.5,6.99,-6.85,-2.35,0,*70
1496207141.47,23361,18.69,74100.5,6.99,-7.11,-2.15,0,*7F
1496207142.71,23362,18.69,74100.5,6.99,-6.59,-1.35,0,*70
1496207143.92,23363,18.69,74104.3,6.99,-6.01,-0.61,0,*4C
1496207145.17,23364,18.69,74104.3,7.03,-5.61,-0.27,0,*4E
1496207146.41,23365,18.69,74106.5,7.03,-5.23,-0.07,0,*7B
1496207147.6,23366,18.69,74098.0,7.05,-4.93,0.09,0,*57
1496207148.82,23367,18.69,74100.8,7.07,-4.49,-0.11,0,*47
1496207150.03,23368,18.69,74110.3,7.05,-3.83,0.37,0,*62
1496207151.21,23369,18.69,74112.5,7.05,-3.31,1.01,0,*5E
1496207152.44,23370,18.75,74114.0,7.07,-2.87,1.43,0,*5E
1496207153.67,23371,18.69,74114.3,7.09,-1.87,1.67,0,*54
1496207154.84,23372,18.69,74112.0,7.09,-0.65,1.83,0,*60
1496207156.07,23373,18.69,74116.5,7.09,-0.27,1.67,0,*6D
1496207157.29,23374,18.69,74116.5,7.11,-0.11,1.71,0,*61
1496207158.51,23375,18.69,74116.8,7.11,-0.73,0.79,0,*5D
1496207159.74,23376,18.69,74112.5,7.11,-2.03,0.05,0,*50
1496207160.99,23377,18.69,74114.5,7.11,-2.55,0.33,0,*67
1496207162.18,23378,18.69,74116.0,7.11,-3.07,0.01,0,*5F
1496207163.38,23379,18.69,74112.3,7.11,-3.35,0.01,0,*5F
1496207164.57,23380,18.69,74120.8,7.09,-4.17,-0.73,0,*4F
1496207165.78,23381,18.69,74116.5,7.09,-4.05,-0.27,0,*4C
1496207167.02,23382,18.69,74116.5,7.07,-3.75,-0.27,0,*41
1496207168.25,23383,18.69,74116.5,7.07,-2.99,0.47,0,*68
1496207169.48,23384,18.69,74118.8,7.09,-1.99,1.43,0,*57
1496207170.69,23385,18.69,74124.0,7.09,-0.77,2.17,0,*65
1496207171.85,23386,18.69,74124.3,7.09,0.01,2.31,0,*7E
1496207173.03,23387,18.69,74114.8,7.09,0.09,1.93,0,*7C
1496207174.25,23388,18.69,74118.5,7.09,0.75,2.43,0,*46
1496207175.45,23389,18.69,74116.8,7.09,1.59,2.61,0,*78
1496207176.7,23390,18.69,74122.0,7.11,1.89,2.73,0,*77
1496207177.93,23391,18.69,74140.5,7.15,1.41,2.39,0,*78
1496207179.12,23392,18.75,74136.5,7.13,0.33,1.79,0,*4E
1496207180.35,23393,18.69,74110.5,7.13,-0.89,1.21,0,*6E
1496207181.54,23394,18.69,74122.8,7.13,-0.93,1.41,0,*64
1496207182.77,23395,18.69,74130.0,7.13,-1.13,1.89,0,*58
1496207183.95,23396,18.69,74134.3,7.13,-1.67,1.75,0,*5B
1496207185.15,23397,18.69,74138.3,7.17,-1.75,1.97,0,*51
1496207186.33,23398,18.69,74130.3,7.17,-1.75,2.31,0,*51
1496207187.56,23399,18.69,74124.8,7.17,-1.87,2.43,0,*58
1496207188.82,23400,18.69,74132.3,7.19,-1.95,2.81,0,*5C
1496207190.03,23401,18.69,74138.8,7.21,-1.13,3.55,0,*50
1496207191.21,23402,18.69,74136.3,7.25,-0.29,3.89,0,*6E
1496207192.41,23403,18.69,74128.3,7.25,0.71,4.53,0,*4F
1496207193.61,23404,18.69,74124.5,7.27,1.75,4.53,0,*7F
1496207194.84,23405,18.69,74118.5,7.27,2.27,4.63,0,*79
1496207196.08,23406,18.69,74122.8,7.29,2.77,4.67,0,*75
1496207197.29,23407,18.69,74122.8,7.29,3.11,4.85,0,*79
1496207198.49,23408,18.69,74114.5,7.29,2.55,4.27,0,*7F
1496207199.69,23409,18.69,74116.5,7.29,2.89,3.93,0,*77
1496207200.93,23410,18.69,74114.5,7.29,3.23,3.75,0,*76
1496207202.14,23411,18.69,74122.5,7.29,4.31,4.41,0,*73
1496207203.34,23412,18.69,74126.3,7.31,4.57,4.41,0,*79
1496207204.57,23413,18.69,74124.3,7.31,4.15,3.71,0,*7A
1496207205.81,23414,18.75,74126.3,7.31,2.89,1.71,0,*7C
1496207207.06,23415,18.69,74128.0,7.31,2.01,0.83,0,*41
1496207208.29,23416,18.69,74116.0,7.29,1.55,0.95,0,*4E
1496207209.54,23417,18.69,74122.0,7.31,1.55,1.59,0,*77
1496207210.77,23418,18.69,74122.8,7.29,1.33,1.71,0,*7B
1496207212.0,23419,18.69,74124.3,7.31,0.71,1.89,0,*43
1496207213.24,23420,18.69,74128.3,7.31,0.37,1.71,0,*4C
1496207214.45,23421,18.69,74144.5,7.31,0.09,1.43,0,*71
1496207215.63,23422,18.69,74118.3,7.25,-1.21,0.43,0,*60
1496207216.86,23423,18.69,74108.3,7.25,-0.27,1.33,0,*60
1496207218.03,23424,18.69,74112.3,7.25,-0.33,1.01,0,*63
1496207219.28,23425,18.75,74104.8,7.19,-0.85,0.71,0,*56
1496207220.49,23426,18.69,74088.3,7.17,0.13,1.43,0,*49
1496207221.74,23427,18.69,74102.0,7.15,2.17,3.19,0,*71
1496207222.98,23428,18.69,74104.3,7.15,3.29,4.01,0,*7C
1496207224.18,23429,18.69,74118.0,7.17,3.49,4.07,0,*7F
1496207225.44,23430,18.69,74108.5,7.15,3.23,3.71,0,*7F
1496207226.62,23431,18.69,74112.3,7.17,2.27,2.65,0,*7D
1496207227.85,23432,18.69,74116.5,7.15,2.35,2.89,0,*7D
1496207229.11,23433,18.75,74126.0,7.15,2.85,3.33,0,*77
1496207230.34,23434,18.69,74124.3,7.15,2.59,2.99,0,*70
1496207231.57,23435,18.69,74134.0,7.15,2.51,2.99,0,*79
1496207232.75,23436,18.69,74116.5,7.13,2.35,2.95,0,*72
1496207233.94,23437,18.69,74104.8,7.13,2.89,3.55,0,*79
1496207235.17,23438,18.75,74126.5,7.11,2.59,3.29,0,*72
1496207236.42,23439,18.75,74124.5,7.11,2.81,3.53,0,*7B
1496207237.64,23440,18.69,74124.5,7.11,3.25,3.75,0,*7E
1496207238.85,23441,18.75,74134.8,7.11,2.65,2.95,0,*75
1496207240.07,23442,18.69,74122.8,7.09,1.55,1.97,0,*7E
1496207241.33,23443,18.69,74116.5,7.07,1.25,1.67,0,*79
1496207242.55,23444,18.69,74116.3,7.05,1.51,2.17,0,*7B
1496207243.81,23445,18.69,74116.3,7.03,2.05,2.59,0,*74
1496207245.03,23446,18.69,74112.8,7.03,2.61,3.19,0,*70
1496207246.29,23447,18.69,74116.5,6.99,2.85,3.33,0,*71
1496207247.48,23448,18.69,74130.0,6.99,3.63,3.85,0,*7A
1496207248.71,23449,18.69,74128.8,6.99,2.91,2.73,0,*7F
1496207249.94,23450,18.69,74128.8,6.99,1.47,1.05,0,*7D
1496207251.13,23451,18.75,74124.8,6.97,1.83,1.43,0,*78
1496207252.36,23452,18.69,74122.0,6.97,1.37,0.71,0,*44
1496207253.53,23453,18.75,74126.8,6.93,0.05,-0.77,0,*6A
1496207254.76,23454,18.75,74124.8,6.93,-0.89,-1.05,0,*40
1496207255.99,23455,18.69,74130.3,6.91,-0.53,-0.89,0,*71
1496207257.21,23456,18.69,74126.5,6.85,-1.21,-1.13,0,*71
1496207258.45,23457,18.75,74108.0,6.85,-1.43,-1.35,0,*70
1496207259.68,23458,18.69,74122.8,6.83,-1.09,-1.01,0,*70
1496207260.89,23459,18.69,74122.3,6.81,-0.73,-0.81,0,*76
1496207262.07,23460,18.69,74120.3,6.79,-1.33,-1.33,0,*76
1496207263.28,23461,18.75,74120.0,6.79,-1.91,-1.59,0,*73
1496207264.49,23462,18.75,74114.3,6.75,-2.47,-1.33,0,*78
1496207265.72,23463,18.75,74104.5,6.75,-1.47,0.17,0,*60
1496207266.92,23464,18.75,74102.0,6.75,-0.37,0.87,0,*58
1496207268.13,23465,18.69,74124.5,6.75,-0.45,0.47,0,*50
1496207269.32,23466,18.69,74126.3,6.75,-1.33,-0.37,0,*49
1496207270.53,23467,18.69,74104.5,6.75,-1.99,-0.61,0,*4B
1496207271.77,23468,18.75,74086.8,6.73,-1.99,-0.69,0,*4A
1496207272.98,23469,18.69,74068.0,6.71,-2.15,-0.89,0,*40
1496207274.21,23470,18.69,74072.8,6.71,-1.99,-0.85,0,*43
1496207275.4,23471,18.75,74080.3,6.67,-0.69,-0.15,0,*72
1496207276.63,23472,18.75,74094.0,6.69,-0.29,-0.27,0,*7A
1496207277.81,23473,18.69,74110.3,6.67,-0.65,-0.45,0,*79
1496207279.05,23474,18.69,74100.5,6.69,-1.29,-1.13,0,*7B
1496207280.26,23475,18.75,74104.0,6.71,-2.55,-3.15,0,*7F
1496207281.46,23476,18.69,74112.8,6.71,-3.91,-4.13,0,*74
1496207282.67,23477,18.75,74114.5,6.71,-5.89,-5.35,0,*7F
1496207283.94,23478,18.69,74126.3,6.73,-7.57,-5.65,0,*76
1496207285.17,23479,18.75,74130.5,6.71,-8.89,-5.85,0,*77
1496207286.41,23480,18.69,74124.0,6.73,-9.31,-5.15,0,*78
1496207287.65,23481,18.75,74132.3,6.73,-9.53,-4.29,0,*73
1496207288.89,23482,18.75,74134.3,6.73,-9.67,-3.59,0,*77
1496207290.09,23483,18.75,74130.8,6.79,-9.53,-3.19,0,*7F
1496207291.29,23484,18.69,74128.0,6.79,-8.45,-1.95,0,*78
1496207292.5,23485,18.75,74126.3,6.79,-8.45,-1.83,0,*7E
1496207293.69,23486,18.75,74126.0,6.83,-8.21,-1.51,0,*75
1496207294.91,23487,18.69,74124.0,6.83,-8.25,-1.47,0,*77
1496207296.16,23488,18.75,74128.5,6.87,-7.91,-0.97,0,*40
1496207297.38,23489,18.75,74134.5,6.89,-7.61,-0.33,0,*4E
1496207298.6,23490,18.69,74130.8,6.91,-7.19,-0.07,0,*77
1496207299.83,23491,18.75,74132.5,6.91,-6.55,0.33,0,*65
1496207301.09,23492,18.69,74128.5,6.95,-5.31,1.09,0,*5B
1496207302.33,23493,18.75,74138.0,6.95,-4.81,1.25,0,*5E
1496207303.53,23494,18.75,74138.8,6.99,-4.45,1.41,0,*5F
1496207304.77,23495,18.75,74138.3,7.03,-3.91,1.63,0,*52
1496207305.97,23496,18.75,74136.5,7.05,-2.91,2.05,0,*55
1496207307.16,23497,18.69,74136.8,7.09,-1.71,2.61,0,*57
1496207308.34,23498,18.69,74140.0,7.09,-0.65,2.27,0,*6E
1496207309.53,23499,18.75,74136.3,7.13,-0.69,1.89,0,*6F
1496207310.74,23500,18.75,74126.0,7.13,-1.17,1.55,0,*57
1496207311.97,23501,18.69,74116.8,7.15,-0.53,2.05,0,*67
1496207313.15,23502,18.75,74108.5,7.17,-0.03,2.27,0,*53
1496207314.37,23503,18.75,74118.5,7.17,-0.23,1.97,0,*68
1496207315.57,23504,18.75,74120.5,7.19,-0.33,1.83,0,*65
1496207316.79,23505,18.75,74128.3,7.21,-0.93,1.13,0,*6C
1496207318.02,23506,18.75,74132.0,7.27,-2.19,0.79,0,*64
1496207319.19,23507,18.75,74140.8,7.25,-2.19,1.41,0,*5D
1496207320.42,23508,18.75,74136.5,7.27,-2.39,1.33,0,*57
1496207321.67,23509,18.75,74134.0,7.31,-1.87,1.29,0,*5C
1496207322.87,23510,18.75,74146.0,7.31,-2.87,0.09,0,*54
1496207324.1,23511,18.75,74142.8,7.31,-2.99,0.59,0,*6F